Regional Weather Roundup
Issued by NWS

Home | Current Version | Previous Version | Text Only | Print | Product List | Glossary Off
Versions: 1 2 3 4 5 6 7 8 9 10 11 12 13 14 15 16 17 18 19 20 21 22 23 24 25 26 27 28 29 30 31 32 33 34 35 36 37 38 39 40 41 42 43 44 45 46 47 48 49 50

275
ASUS43 KIND 081159
RWRIN

WEATHER ROUNDUP FOR INDIANA
NATIONAL WEATHER SERVICE INDIANAPOLIS IN
700 AM EST MON FEB 08 2016

NOTE: "FAIR" INDICATES FEW OR NO CLOUDS BELOW 12,000 FEET WITH NO
SIGNIFICANT WEATHER AND/OR OBSTRUCTIONS TO VISIBILITY.

* - STATION DOES NOT REPORT WEATHER SUCH AS PRECIPITATION OR FOG.

+ - STATION NOT QUALITY CONTROLLED BY THE NATIONAL WEATHER SERVICE.
    USE DATA WITH CAUTION...ESPECIALLY DEWPOINT AND RELATIVE
    HUMIDITY OBSERVATIONS.

INZ001>003-010>013-019-020-081300-
NORTHWEST INDIANA

CITY           SKY/WX    TMP DP  RH WIND       PRES   REMARKS
GARY /AIRPORT/ MOCLDY    32  27  80 SW6       29.64S WCI  26

$$

LMZ046-743>745-081300-
SOUTHERN LAKE MICHIGAN

STATION/POSITION TIME  TEMP    WIND        PRES    WAVE
                       AIR SEA DIR/SP/G            HT
                 (UTC) (F)     (DEG/KT/KT) (MB)    (FT)
BURNS HARBOR     1100   31     200/  8/  9 1004.4S
MICHIGAN CITY    1100   31     180/  9/ 10   N/A

$$

INZ004-005-014>016-021>024-081300-
NORTH CENTRAL INDIANA

CITY           SKY/WX    TMP DP  RH WIND       PRES   REMARKS
ELKHART        CLEAR     27  25  93 CALM      29.63
GOSHEN         PTCLDY    29  25  85 SW6       29.63S WCI  23
6HR MIN TEMP:  28; 6HR MAX TEMP:  33;

SOUTH BEND     CLEAR     24  22  91 CALM      29.63S
6HR MIN TEMP:  22; 6HR MAX TEMP:  29;


$$

INZ006>009-017-018-025>027-081300-
NORTHEAST INDIANA

CITY           SKY/WX    TMP DP  RH WIND       PRES   REMARKS
ANGOLA *+      MOCLDY    25  25 100 CALM      29.62S
FORT WAYNE     CLOUDY    32  30  92 SW6       29.65F WCI  26
6HR MIN TEMP:  30; 6HR MAX TEMP:  34;


$$

INZ028-029-035-036-043>045-051>053-081300-
WEST CENTRAL INDIANA

CITY           SKY/WX    TMP DP  RH WIND       PRES   REMARKS
GREENCASTLE +  LGT SNOW  32  28  86 CALM      29.69S
LAFAYETTE      MOCLDY    29  26  89 W5        29.67S WCI  24
6HR MIN TEMP:  29; 6HR MAX TEMP:  36;

TERRE HAUTE    CLOUDY    34  31  88 W7        29.71S WCI  28
6HR MIN TEMP:  32; 6HR MAX TEMP:  41; 6HR PCP:  0.04;


$$

INZ030>032-037>040-046>048-054>057-064-065-081300-
CENTRAL INDIANA

CITY           SKY/WX    TMP DP  RH WIND       PRES   REMARKS
GREENWOOD *+   CLOUDY    34  34 100 CALM      29.68F
INDIANAPOLIS   CLOUDY    33  31  92 S3        29.67S
6HR MIN TEMP:  33; 6HR MAX TEMP:  37; 6HR PCP:  0.03;

-EAGLE CREEK   CLOUDY    33  32  96 S5        29.67F WCI  29
6HR MIN TEMP:  33; 6HR MAX TEMP:  38; 6HR PCP: TRACE;

KOKOMO *+        N/A     34  27  75 SW7       29.66F WCI  28
6HR MIN TEMP:  32; 6HR MAX TEMP:  37;

MT COMFORT *+  CLOUDY    32  32 100 W3        29.68F
SHELBYVILLE    LGT SNOW  34  31  88 NW5       29.68F FOG     WCI  30
6HR MIN TEMP:  34; 6HR MAX TEMP:  39; 6HR PCP:  0.02;


$$

INZ033-034-041-042-049-050-058-059-081300-
EAST CENTRAL INDIANA

CITY           SKY/WX    TMP DP  RH WIND       PRES   REMARKS
MUNCIE         CLOUDY    35  29  78 W7        29.65F WCI  29
6HR MIN TEMP:  35; 6HR MAX TEMP:  40;


$$

INZ060-061-067>069-081>083-085>088-081300-
SOUTHWEST INDIANA

CITY           SKY/WX    TMP DP  RH WIND       PRES   REMARKS
EVANSVILLE     CLOUDY    35  32  88 SW6       29.76F WCI  30
6HR MIN TEMP:  35; 6HR MAX TEMP:  43; 6HR PCP:  0.06;

HUNTINGBURG *+ CLOUDY    34  28  80 W9        29.75S WCI  26
6HR MIN TEMP:  34; 6HR MAX TEMP:  43;


$$

INZ062-063-066-070>080-084-089>092-081300-
SOUTH CENTRAL AND SOUTHEAST INDIANA

CITY           SKY/WX    TMP DP  RH WIND       PRES   REMARKS
BLOOMINGTON    CLOUDY    34  32  92 CALM      29.68F
6HR MIN TEMP:  33; 6HR MAX TEMP:  41; 6HR PCP: TRACE;

MADISON *+     MOCLDY    34  32  93 W3        29.71S
SEYMOUR +      CLOUDY    36  34  93 CALM      29.70F

$$





USA.gov is the U.S. government's official web portal to all federal, state and local government web resources and services.